Andrews, TX

5:57 PM CDT on May 23, 2017 (GMT -0500)
Andrews

Weather History for KE11 - September, 2013

Change the Weather History Date:

Thursday, September 12, 2013

  Actual Average (KMAF) Record (KMAF)
Temperature  
Mean Temperature 75 °F -  
Max Temperature 86 °F 87 °F 101 °F (1930)
Min Temperature 64 °F 63 °F 51 °F (1975)
Cooling Degree Days 10    
Growing Degree Days 25 (Base 50)    
Moisture  
Dew Point 57 °F    
Average Humidity 54    
Maximum Humidity 84    
Minimum Humidity 32    
Precipitation  
Precipitation 0.00 in - - ()
Sea Level Pressure  
Sea Level Pressure 30.12 in    
Wind  
Wind Speed 10 mph (SE)    
Max Wind Speed 16 mph    
Max Gust Speed 24 mph    
Visibility 10 miles    
Events      
Averages and records for this station are not official NWS values.
T = Trace of Precipitation, MM = Missing Value Source: NWS Daily Summary

Daily Weather History Graph

Daily Weather History Graph

Search for Another Location

Airport or City:

Trip Planner

Search our weather history database for the weather conditions in past years. The results will help you decide how hot, cold, wet, or windy it might be!

Date:

Astronomy

Sep. 12, 2013 Rise Set
Actual Time 7:32 AM CDT 7:59 PM CDT
Civil Twilight 7:07 AM CDT 8:24 PM CDT
Nautical Twilight 6:38 AM CDT 8:53 PM CDT
Astronomical Twilight 6:09 AM CDT 9:22 PM CDT
Moon 2:39 PM CDT (9/12) 12:21 AM CDT (9/12)
Length of Visible Light 13h 16m
Length of Day
12h 27m
Waxing Crescent, 50% of the Moon is Illuminated
Sep 12
Waxing Crescent
Sep 12
First Quarter
Sep 19
Full
Sep 26
Last Quarter
Oct 4
New

Hourly Weather History & Observations

Time (CDT) Temp. Heat Index Dew Point Humidity Pressure Visibility Wind Dir Wind Speed Gust Speed Precip Events Conditions
12:15 AM 77.0 °F - 60.8 °F 57% 30.12 in 10.0 mi SE 11.5 mph - N/A   Overcast
12:35 AM 76.5 °F - 60.4 °F 58% 30.12 in 10.0 mi SSE 10.4 mph 17.3 mph N/A   Mostly Cloudy
12:55 AM 75.6 °F - 60.4 °F 59% 30.12 in 10.0 mi SE 11.5 mph - N/A   Scattered Clouds
1:15 AM 74.8 °F - 60.8 °F 62% 30.12 in 10.0 mi SSE 10.4 mph 17.3 mph N/A   Scattered Clouds
1:35 AM 74.3 °F - 60.8 °F 63% 30.13 in 10.0 mi SSE 9.2 mph - N/A   Overcast
1:55 AM 73.6 °F - 60.8 °F 64% 30.13 in 10.0 mi SSE 9.2 mph - N/A   Overcast
2:15 AM 73.4 °F - 61.3 °F 66% 30.13 in 10.0 mi SSE 11.5 mph - N/A   Mostly Cloudy
2:35 AM 73.4 °F - 61.7 °F 67% 30.13 in 10.0 mi SSE 11.5 mph - N/A   Overcast
2:55 AM 72.3 °F - 61.2 °F 68% 30.12 in 10.0 mi SSE 9.2 mph - N/A   Mostly Cloudy
3:15 AM 71.8 °F - 60.4 °F 67% 30.12 in 10.0 mi SSE 11.5 mph 17.3 mph N/A   Scattered Clouds
3:35 AM 71.2 °F - 60.1 °F 68% 30.12 in 10.0 mi SSE 9.2 mph - N/A   Clear
3:55 AM 70.7 °F - 59.4 °F 67% 30.12 in 10.0 mi SSE 10.4 mph - N/A   Clear
4:15 AM 70.3 °F - 59.0 °F 67% 30.12 in 10.0 mi SSE 6.9 mph - N/A   Clear
4:35 AM 69.8 °F - 59.0 °F 68% 30.12 in 10.0 mi SSE 6.9 mph - N/A   Clear
4:55 AM 69.3 °F - 59.0 °F 70% 30.12 in 10.0 mi SE 6.9 mph - N/A   Clear
5:15 AM 68.4 °F - 59.0 °F 72% 30.12 in 10.0 mi SSE 4.6 mph - N/A   Clear
5:35 AM 67.6 °F - 59.0 °F 74% 30.12 in 10.0 mi SE 4.6 mph - N/A   Clear
5:55 AM 66.9 °F - 59.0 °F 76% 30.12 in 10.0 mi ESE 5.8 mph - N/A   Clear
6:15 AM 66.4 °F - 59.0 °F 77% 30.12 in 10.0 mi SE 5.8 mph - N/A   Clear
6:35 AM 65.7 °F - 59.0 °F 79% 30.12 in 10.0 mi SE 4.6 mph - N/A   Clear
6:55 AM 64.8 °F - 59.0 °F 82% 30.13 in 10.0 mi ESE 4.6 mph - N/A   Clear
7:15 AM 64.6 °F - 59.4 °F 83% 30.13 in 10.0 mi ESE 3.5 mph - N/A   Clear
7:35 AM 64.6 °F - 59.7 °F 84% 30.13 in 10.0 mi Calm Calm - N/A   Clear
7:55 AM 65.5 °F - 60.4 °F 84% 30.14 in 10.0 mi ESE 3.5 mph - N/A   Clear
8:15 AM 67.3 °F - 61.3 °F 81% 30.14 in 10.0 mi ESE 4.6 mph - N/A   Clear
8:35 AM 68.9 °F - 62.2 °F 79% 30.15 in 10.0 mi SE 6.9 mph - N/A   Clear
8:55 AM 70.5 °F - 62.4 °F 75% 30.16 in 10.0 mi SSE 11.5 mph - N/A   Clear
9:15 AM 72.3 °F - 62.2 °F 70% 30.17 in 10.0 mi SE 10.4 mph - N/A   Clear
9:35 AM 72.7 °F - 62.2 °F 70% 30.17 in 10.0 mi SSE 15.0 mph - N/A   Clear
9:55 AM 74.5 °F - 62.1 °F 65% 30.17 in 10.0 mi SSE 10.4 mph 17.3 mph N/A   Clear
10:15 AM 75.2 °F - 62.2 °F 64% 30.18 in 10.0 mi SSE 11.5 mph 19.6 mph N/A   Clear
10:35 AM 77.0 °F - 61.7 °F 59% 30.18 in 10.0 mi SSE 12.7 mph 17.3 mph N/A   Clear
10:55 AM 77.4 °F - 60.8 °F 57% 30.18 in 10.0 mi SE 13.8 mph 20.7 mph N/A   Clear
11:15 AM 77.7 °F - 60.8 °F 56% 30.18 in 10.0 mi SSE 15.0 mph 18.4 mph N/A   Clear
11:35 AM 79.0 °F - 60.6 °F 53% 30.18 in 10.0 mi SSE 12.7 mph 19.6 mph N/A   Clear
11:55 AM 79.9 °F - 59.7 °F 50% 30.18 in 10.0 mi SE 15.0 mph 20.7 mph N/A   Scattered Clouds
12:15 PM 82.2 °F 82.4 °F 59.4 °F 46% 30.18 in 10.0 mi SE 13.8 mph 21.9 mph N/A   Scattered Clouds
12:35 PM 82.9 °F 82.8 °F 59.2 °F 44% 30.17 in 10.0 mi SE 12.7 mph 18.4 mph N/A   Scattered Clouds
12:55 PM 82.4 °F 82.3 °F 58.5 °F 44% 30.16 in 10.0 mi SE 12.7 mph 20.7 mph N/A   Scattered Clouds
1:15 PM 83.5 °F 83.1 °F 58.3 °F 42% 30.15 in 10.0 mi SE 12.7 mph 24.2 mph N/A   Scattered Clouds
1:35 PM 83.3 °F 82.9 °F 58.1 °F 42% 30.14 in 10.0 mi SE 11.5 mph 20.7 mph N/A   Scattered Clouds
1:55 PM 85.3 °F 84.4 °F 57.4 °F 39% 30.14 in 10.0 mi SSE 12.7 mph 21.9 mph N/A   Mostly Cloudy
2:15 PM 84.0 °F 83.2 °F 56.7 °F 39% 30.13 in 10.0 mi SE 9.2 mph 21.9 mph N/A   Mostly Cloudy
2:35 PM 85.8 °F 84.5 °F 55.9 °F 36% 30.12 in 10.0 mi SSE 10.4 mph 23.0 mph N/A   Mostly Cloudy
2:55 PM 84.7 °F 83.6 °F 55.9 °F 37% 30.10 in 10.0 mi SSE 12.7 mph 20.7 mph N/A   Mostly Cloudy
3:15 PM 84.2 °F 82.9 °F 54.7 °F 36% 30.10 in 10.0 mi SE 10.4 mph 19.6 mph N/A   Mostly Cloudy
3:35 PM 86.2 °F 84.5 °F 54.7 °F 34% 30.09 in 10.0 mi South 10.4 mph 19.6 mph N/A   Mostly Cloudy
3:55 PM 85.5 °F 84.0 °F 54.9 °F 35% 30.08 in 10.0 mi South 11.5 mph 18.4 mph N/A   Mostly Cloudy
4:15 PM 86.9 °F 85.3 °F 55.4 °F 34% 30.08 in 10.0 mi SE 16.1 mph 24.2 mph N/A   Overcast
4:35 PM 84.2 °F 82.9 °F 54.3 °F 36% 30.07 in 10.0 mi SE 13.8 mph 20.7 mph N/A   Mostly Cloudy
4:55 PM 85.5 °F - 52.7 °F 32% 30.07 in 10.0 mi SE 11.5 mph 19.6 mph N/A   Scattered Clouds
5:15 PM 84.2 °F 82.8 °F 54.0 °F 35% 30.06 in 10.0 mi ESE 16.1 mph 19.6 mph N/A   Mostly Cloudy
5:35 PM 85.3 °F 83.6 °F 54.1 °F 34% 30.06 in 10.0 mi SE 10.4 mph 17.3 mph N/A   Scattered Clouds
5:55 PM 84.2 °F 82.8 °F 53.8 °F 35% 30.06 in 10.0 mi SE 9.2 mph 17.3 mph N/A   Clear
6:15 PM 84.0 °F 82.6 °F 54.0 °F 35% 30.06 in 10.0 mi SSE 10.4 mph 23.0 mph N/A   Scattered Clouds
6:35 PM 84.6 °F 83.0 °F 53.1 °F 34% 30.06 in 10.0 mi ESE 8.1 mph - N/A   Scattered Clouds
6:55 PM 83.5 °F - 52.3 °F 34% 30.07 in 10.0 mi SE 10.4 mph 16.1 mph N/A   Clear
7:15 PM 83.7 °F - 52.0 °F 33% 30.07 in 10.0 mi SE 9.2 mph - N/A   Clear
7:35 PM 82.6 °F - 51.8 °F 34% 30.07 in 10.0 mi SE 10.4 mph - N/A   Clear
7:55 PM 82.0 °F - 51.4 °F 34% 30.07 in 10.0 mi SE 11.5 mph 18.4 mph N/A   Clear
8:15 PM 81.0 °F - 52.0 °F 36% 30.07 in 10.0 mi SE 9.2 mph - N/A   Clear
8:35 PM 79.7 °F - 51.8 °F 38% 30.08 in 10.0 mi SE 5.8 mph - N/A   Clear
8:55 PM 78.8 °F - 52.2 °F 39% 30.08 in 10.0 mi SE 5.8 mph - N/A   Clear
9:15 PM 77.7 °F - 52.7 °F 42% 30.09 in 10.0 mi SE 4.6 mph - N/A   Clear
9:35 PM 76.1 °F - 52.7 °F 44% 30.10 in 10.0 mi SE 4.6 mph - N/A   Clear
9:55 PM 74.8 °F - 52.3 °F 45% 30.10 in 10.0 mi ESE 4.6 mph - N/A   Clear
10:15 PM 74.3 °F - 52.3 °F 46% 30.10 in 10.0 mi SE 4.6 mph - N/A   Clear
10:35 PM 73.4 °F - 52.0 °F 47% 30.10 in 10.0 mi ESE 4.6 mph - N/A   Clear
10:55 PM 73.4 °F - 52.0 °F 47% 30.10 in 10.0 mi ESE 5.8 mph - N/A   Clear
11:15 PM 73.4 °F - 52.0 °F 47% 30.10 in 10.0 mi SE 6.9 mph - N/A   Clear
11:35 PM 73.9 °F - 51.8 °F 46% 30.10 in 10.0 mi SE 6.9 mph - N/A   Clear
11:55 PM 73.0 °F - 51.6 °F 47% 30.10 in 10.0 mi SE 6.9 mph - N/A   Clear